Weather in Gruziny

Russia / Tver Oblast     56°56′10″N   35°02′42″E
temp.,
°C
wind,
m/s
gust,
m/s
humid.,
%
clouds,
%
prec.,
mm/h
press.,
hPa
HPBL,
m
10 august, wed
wed1000:00+14nnw2678100 0.0 1024153
03:00+13n268290 0.0 1024168
06:00+11n259410 0.0 1025121
09:00+16n356962 0.0 1025446
12:00+21nne234816 0.0 10251676
15:00+19n2461100 0.0 1024268
18:00+18nne266392 0.0 1025314
21:00+16n22656 0.0 102525
11 august, thu
thu1100:00+12n22740 0.0 102615
03:00+11nnw12820 0.0 102611
06:00+11n11820 0.0 102710
09:00+18se00590 0.0 1027312
12:00+22s01430 0.0 10261453
15:00+23w01391 0.0 10251799
18:00+22sse12523 0.0 1024173
21:00+15sw22693 0.0 102516
12 august, fri
fri1200:00+13wsw2276100 0.0 102527
03:00+12wsw228045 0.0 102520
06:00+13wsw2280100 0.0 102532
09:00+19w235833 0.0 1025339
12:00+24w234250 0.0 10251339
15:00+25wnw233735 0.0 10231614
18:00+24wnw125567 0.0 1023243
21:00+17nw11737 0.0 102311
13 august, sat
sat1300:00+15nw227616 0.0 102411
03:00+14wnw118166 0.0 102411
06:00+14nw118222 0.0 102411
09:00+21sw116239 0.0 1024316
12:00+25ssw01482 0.0 10231126
15:00+27ene11430 0.0 10221593
18:00+25ese12555 0.0 1021388
21:00+19se116958 0.0 102111
14 august, sun
sun1400:00+18se1174100 0.0 102111
03:00+16se118299 0.0 102111
06:00+17ese1178100 0.0 102111
09:00+18se2276100 0.0 102074
12:00+23sse2356100 0.0 1020473
15:00+21se246699 0.0 1020282
18:00+18n228691 0.3 101933
21:00+16e2293100 0.3 101917